Location: *
(49.7115°N, 15.0136°E)
Time: 08:41:04
(UTC+00:00)

STARLINK-57 - Pass Details

Date: 27 February 2020
Orbit: 529 x 530 km, 53.0° (Epoch: 10 April)

Event Time Altitude Azimuth Distance (km) Brightness Sun altitude
Rises 17:19:30 0° 269° (W) 2,667 9.8 -7.5°
Reaches altitude 10° 17:21:45 10° 273° (W) 1,778 7.9 -7.8°
Maximum altitude 17:25:43 55° 352° (N) 644 4.0 -8.5°
Enters shadow 17:29:30 11° 71° (ENE) 1,706 5.5 -9.1°
